Date String (YYYY-MM-DD hh:mm:ss) UTC,Instrument flags,Ambient pressure (hPa),Sample flow (lpm),Bypass flow (lpm),Sample temperature (°C),Ambient temperature (°C),ASC tube jacket temperature (°C),LED temperature (°C),Box temperature (°C),Sample RH (%),Span deviation,Mass concentration (μg/m³),Mass concentration (μg/m³),Mass concentration (μg/m³)
DateTimeUTC,F1_M11,P_M11,Q1_M11,Q2_M11,T1_M11,T2_M11,T3_M11,T4_M11,T5_M11,U1_M11,ZSPAN_M11,X0_M11,X2_M11,X1_M11
2022-08-11 10:00:00,,0831.9,5.01,0.00,29.7,27.5,00.0,38.5,31.4,24.4,0000.0,0013.89,0006.13,0004.85
2022-08-11 10:01:00,,0831.8,4.99,0.00,29.7,27.5,00.0,38.5,31.3,24.7,0000.0,0013.80,0006.16,0004.84
2022-08-11 10:02:00,,0831.8,5.01,0.00,29.6,27.5,00.0,38.5,31.3,24.6,0000.0,0013.57,0006.14,0004.84
2022-08-11 10:03:00,,0831.8,4.99,0.00,29.6,27.6,00.0,38.4,31.3,24.6,0000.0,0013.44,0006.13,0004.85
2022-08-11 10:04:00,,0831.8,5.00,0.00,29.6,27.8,00.0,38.4,31.4,24.7,0000.0,0013.29,0006.08,0004.83
2022-08-11 10:05:00,,0831.8,5.00,0.00,29.6,27.9,00.0,38.4,31.4,24.5,0000.0,0013.21,0006.04,0004.82
2022-08-11 10:06:00,,0831.7,5.00,0.00,29.6,28.0,00.0,38.4,31.4,24.6,0000.0,0012.63,0006.01,0004.82
2022-08-11 10:07:00,,0831.7,5.00,0.00,29.6,28.1,00.0,38.4,31.4,24.5,0000.0,0012.48,0006.00,0004.82
2022-08-11 10:08:00,,0831.7,5.00,0.00,29.6,28.2,00.0,38.4,31.5,24.4,0000.0,0012.02,0006.03,0004.82
2022-08-11 10:09:00,,0831.7,5.00,0.00,29.6,28.3,00.0,38.4,31.5,23.5,0000.0,0011.85,0006.03,0004.82
2022-08-11 10:10:00,,0831.7,5.00,0.00,29.6,28.4,00.0,38.4,31.5,23.2,0000.0,0011.94,0006.05,0004.81
2022-08-11 10:11:00,,0831.7,5.00,0.00,29.6,28.5,00.0,38.4,31.6,23.1,0000.0,0011.80,0006.05,0004.79
2022-08-11 10:12:00,,0831.7,5.00,0.00,29.7,28.5,00.0,38.4,31.6,23.1,0000.0,0011.82,0005.99,0004.79
2022-08-11 10:13:00,,0831.7,5.00,0.00,29.7,28.6,00.0,38.5,31.6,23.1,0000.0,0012.29,0005.99,0004.79
2022-08-11 10:14:00,,0831.7,5.00,0.00,29.7,28.6,00.0,38.5,31.7,23.1,0000.0,0012.54,0006.05,0004.79
2022-08-11 10:15:00,,0831.7,5.01,0.00,29.7,28.7,00.0,38.5,31.7,23.3,0000.0,0012.84,0006.06,0004.79
2022-08-11 10:16:00,,0831.7,5.00,0.00,29.8,28.7,00.0,38.5,31.7,23.2,0000.0,0013.80,0006.06,0004.80
2022-08-11 10:17:00,,0831.8,5.00,0.00,29.8,28.8,00.0,38.5,31.7,23.0,0000.0,0013.89,0006.05,0004.80
2022-08-11 10:18:00,,0831.7,5.00,0.00,29.8,28.8,00.0,38.5,31.8,22.8,0000.0,0014.18,0006.05,0004.80
2022-08-11 10:19:00,,0831.7,5.00,0.00,29.8,28.9,00.0,38.6,31.8,22.8,0000.0,0014.64,0006.04,0004.79
2022-08-11 10:20:00,,0831.7,5.01,0.00,29.9,28.9,00.0,38.6,31.8,22.6,0000.0,0015.23,0006.03,0004.78
2022-08-11 10:21:00,,0831.7,4.99,0.00,29.9,28.9,00.0,38.6,31.9,22.6,0000.0,0014.96,0005.99,0004.79
2022-08-11 10:22:00,,0831.6,5.00,0.00,29.9,28.3,00.0,38.6,31.7,22.7,0000.0,0014.93,0006.01,0004.81
2022-08-11 10:23:00,,0831.6,5.00,0.00,29.8,27.7,00.0,38.5,31.6,22.5,0000.0,0014.84,0006.00,0004.82
2022-08-11 10:24:00,,0831.7,4.99,0.00,29.8,27.5,00.0,38.5,31.4,22.6,0000.0,0014.78,0006.02,0004.83
2022-08-11 10:25:00,,0831.6,5.01,0.00,29.7,27.5,00.0,38.5,31.4,22.7,0000.0,0014.52,0005.94,0004.83
2022-08-11 10:26:00,,0831.6,5.01,0.00,29.6,27.6,00.0,38.5,31.4,22.6,0000.0,0014.12,0005.89,0004.83
2022-08-11 10:27:00,,0831.6,4.99,0.00,29.6,27.7,00.0,38.5,31.4,22.6,0000.0,0013.29,0005.91,0004.84
2022-08-11 10:28:00,,0831.5,4.99,0.00,29.6,27.9,00.0,38.5,31.4,22.7,0000.0,0012.75,0005.88,0004.83
2022-08-11 10:29:00,,0831.5,5.00,0.00,29.6,28.0,00.0,38.5,31.4,22.7,0000.0,0012.13,0005.88,0004.83
2022-08-11 10:30:00,,0831.5,4.99,0.00,29.6,28.1,00.0,38.5,31.5,22.7,0000.0,0011.66,0005.87,0004.83
2022-08-11 10:31:00,,0831.5,5.00,0.00,29.6,28.2,00.0,38.5,31.5,22.6,0000.0,0011.38,0005.88,0004.84
2022-08-11 10:32:00,,0831.5,5.01,0.00,29.6,28.3,00.0,38.5,31.5,22.6,0000.0,0011.39,0005.87,0004.83
2022-08-11 10:33:00,,0831.5,5.00,0.00,29.6,28.4,00.0,38.5,31.5,22.7,0000.0,0011.84,0005.82,0004.81
2022-08-11 10:34:00,,0831.5,5.00,0.00,29.7,28.5,00.0,38.5,31.6,23.4,0000.0,0012.35,0005.86,0004.81
2022-08-11 10:35:00,,0831.6,5.01,0.00,29.7,28.5,00.0,38.5,31.6,23.4,0000.0,0012.32,0005.87,0004.81
2022-08-11 10:36:00,,0831.6,5.00,0.00,29.7,28.6,00.0,38.5,31.6,23.1,0000.0,0012.40,0005.89,0004.81
2022-08-11 10:37:00,,0831.6,5.00,0.00,29.7,28.6,00.0,38.5,31.7,22.6,0000.0,0012.58,0005.93,0004.80
2022-08-11 10:38:00,,0831.6,5.01,0.00,29.8,28.7,00.0,38.5,31.7,22.5,0000.0,0012.49,0005.94,0004.79
2022-08-11 10:39:00,,0831.6,5.00,0.00,29.8,28.7,00.0,38.5,31.7,22.5,0000.0,0012.57,0005.98,0004.80
2022-08-11 10:40:00,,0831.6,4.99,0.00,29.8,28.8,00.0,38.6,31.7,22.4,0000.0,0012.64,0006.01,0004.81
2022-08-11 10:41:00,,0831.6,5.00,0.00,29.8,28.8,00.0,38.6,31.8,22.9,0000.0,0013.44,0006.04,0004.81
2022-08-11 10:42:00,,0831.5,5.00,0.00,29.9,28.9,00.0,38.6,31.8,22.5,0000.0,0013.97,0006.04,0004.80
2022-08-11 10:43:00,,0831.5,4.99,0.00,29.9,28.9,00.0,38.6,31.8,22.3,0000.0,0013.93,0006.03,0004.80
2022-08-11 10:44:00,,0831.6,5.00,0.00,29.9,28.9,00.0,38.6,31.9,22.4,0000.0,0013.30,0006.02,0004.80
2022-08-11 10:45:00,,0831.5,5.01,0.00,29.9,28.7,00.0,38.6,31.8,22.4,0000.0,0012.74,0005.95,0004.78
2022-08-11 10:46:00,,0831.5,5.00,0.00,29.9,27.9,00.0,38.6,31.6,22.3,0000.0,0013.46,0005.95,0004.76
2022-08-11 10:47:00,,0831.5,5.01,0.00,29.8,27.6,00.0,38.5,31.5,22.4,0000.0,0013.45,0005.94,0004.76
2022-08-11 10:48:00,,0831.5,4.99,0.00,29.7,27.5,00.0,38.5,31.4,22.6,0000.0,0013.34,0005.88,0004.75
2022-08-11 10:49:00,,0831.4,5.00,0.00,29.7,27.6,00.0,38.5,31.4,23.0,0000.0,0013.51,0005.84,0004.75
2022-08-11 10:50:00,,0831.5,5.00,0.00,29.6,27.7,00.0,38.5,31.4,23.1,0000.0,0013.52,0005.84,0004.73
2022-08-11 10:51:00,,0831.5,5.00,0.00,29.6,27.8,00.0,38.5,31.4,23.3,0000.0,0013.48,0005.79,0004.72
2022-08-11 10:52:00,,0831.4,4.99,0.00,29.6,28.0,00.0,38.5,31.4,23.1,0000.0,0012.80,0005.74,0004.70
2022-08-11 10:53:00,,0831.4,5.00,0.00,29.6,28.1,00.0,38.5,31.5,23.0,0000.0,0011.88,0005.74,0004.70
2022-08-11 10:54:00,,0831.5,5.01,0.00,29.6,28.2,00.0,38.5,31.5,23.0,0000.0,0012.54,0005.77,0004.70
2022-08-11 10:55:00,,0831.5,5.00,0.00,29.7,28.3,00.0,38.5,31.5,23.4,0000.0,0012.97,0005.81,0004.71
2022-08-11 10:56:00,,0831.5,5.00,0.00,29.7,28.4,00.0,38.5,31.6,23.0,0000.0,0013.23,0005.81,0004.71
2022-08-11 10:57:00,,0831.5,4.99,0.00,29.7,28.4,00.0,38.5,31.6,23.2,0000.0,0012.21,0005.74,0004.71
2022-08-11 10:58:00,,0831.5,5.01,0.00,29.7,28.5,00.0,38.5,31.6,23.5,0000.0,0012.28,0005.74,0004.69
2022-08-11 10:59:00,,0831.5,5.00,0.00,29.7,28.6,00.0,38.5,31.7,23.4,0000.0,0012.61,0005.84,0004.69
